Flag for Germany Weather past 2 weeks in Jena, Thuringia, Germany

Now
32 °F

Clear.


Feels Like: 26 °F
Forecast: 31 / 46 °F
Wind: 7 mph from South

Location: Erfurt-Bindersleben

Current Time: Mar 1, 2015 at 12:28:18 AM

Latest Report: Feb 28, 2015 at 11:50 PM


Visibility: 10 mi

Pressure: 29.89 "Hg

Humidity: 87%

Dew point: 28 °F

Location of JenaLocation

Historic Weather in Jena — Graph

°F

Jena temperature yesterday

Maximum temperature yesterday: 41 °F (at 12:20 PM)
Minimum temperature yesterday: 30 °F (at 5:50 AM)
Average temperature yesterday: 35 °F

Past Weeks' High & Low Weather Summary

 TemperatureHumidityPressure
High48 °F (Feb 21, 1:20 PM)100% (Feb 14, 12:20 AM)30.72 "Hg (Feb 14, 12:20 AM)
Low23 °F (Feb 14, 6:50 AM)43% (Feb 26, 1:50 PM)29.39 "Hg (Feb 23, 3:50 PM)
Average34 °F85%29.99 "Hg
* Reported Feb 13 11:20 PM — Feb 28 11:20 PM, Jena, Weather by CustomWeather, © 2015

Note: Actual official high and low records may vary slightly from our data, if they occured in-between our weather recording intervals... More about our weather records

Advertising

Jena weather history for previous 24 hours

 ConditionsComfort  
Time TempWeatherWind HumidityBarometerVisibility
11:20 PM
Sat, Feb 28
32 °FClear.7 mph80%29.92 "Hg10 mi
10:50 PM32 °FClear.7 mph80%29.95 "Hg10 mi
10:20 PM32 °FClear.8 mph87%29.95 "Hg10 mi
9:50 PM34 °FClear.9 mph81%29.95 "Hg10 mi
9:20 PM34 °FClear.9 mph81%29.98 "Hg10 mi
8:50 PM32 °FClear.9 mph80%29.98 "Hg10 mi
8:20 PM34 °FClear.8 mph81%29.98 "Hg10 mi
7:50 PM36 °FPassing clouds.8 mph75%30.01 "HgN/A
7:20 PM36 °FPassing clouds.7 mph75%30.01 "HgN/A
6:50 PM36 °FPassing clouds.7 mph75%30.01 "HgN/A
6:20 PM37 °FPassing clouds.7 mph65%30.04 "HgN/A
5:50 PM37 °FPassing clouds.7 mph70%30.04 "HgN/A
5:20 PM39 °FScattered clouds.6 mph65%30.04 "HgN/A
4:50 PM41 °FScattered clouds.9 mph61%30.04 "HgN/A
4:20 PM41 °FScattered clouds.10 mph61%30.04 "HgN/A
3:50 PM41 °FPartly sunny.12 mph61%30.07 "HgN/A
3:20 PM41 °FScattered clouds.15 mph61%30.07 "HgN/A
2:50 PM41 °FScattered clouds.10 mph61%30.07 "HgN/A
2:20 PM41 °FScattered clouds.12 mph57%30.07 "HgN/A
1:50 PM41 °FScattered clouds.8 mph57%30.07 "HgN/A
1:20 PM39 °FPartly sunny.7 mph70%30.09 "HgN/A
12:50 PM41 °FScattered clouds.9 mph61%30.09 "HgN/A
12:20 PM41 °FScattered clouds.9 mph70%30.09 "HgN/A
11:50 AM37 °FScattered clouds.7 mph75%30.12 "HgN/A
11:20 AM37 °FScattered clouds.7 mph75%30.12 "HgN/A
10:50 AM37 °FScattered clouds.7 mph75%30.12 "HgN/A
10:20 AM37 °FPassing clouds.6 mph81%30.12 "HgN/A
9:50 AM36 °FSunny.6 mph87%30.12 "Hg10 mi
9:20 AM34 °FSunny.7 mph93%30.12 "Hg10 mi
8:50 AM32 °FSunny.6 mph100%30.12 "Hg10 mi
8:20 AM30 °FSunny.7 mph100%30.12 "Hg10 mi
7:50 AM30 °FScattered clouds.7 mph100%30.12 "HgN/A
7:20 AM30 °FPartly sunny.8 mph93%30.12 "HgN/A
6:50 AM30 °FPassing clouds.8 mph93%30.12 "HgN/A
6:20 AM30 °FFog.7 mph93%30.12 "HgN/A
5:50 AM30 °FFog.7 mph93%30.09 "HgN/A
5:20 AM32 °FFog.8 mph100%30.09 "HgN/A
4:20 AM32 °FPassing clouds.7 mph100%30.09 "HgN/A
3:50 AM34 °FPassing clouds.6 mph100%30.09 "HgN/A
3:20 AM34 °FClear.6 mph100%30.07 "Hg10 mi
2:50 AM34 °FPassing clouds.6 mph93%30.07 "HgN/A
2:20 AM34 °FPartly cloudy.7 mph93%30.09 "HgN/A
1:50 AM34 °FPassing clouds.8 mph100%30.09 "HgN/A
1:20 AM34 °FPassing clouds.8 mph100%30.07 "HgN/A
12:50 AM34 °FLight rain. Passing clouds.7 mph100%30.07 "HgN/A
12:20 AM36 °FLight rain. Passing clouds.8 mph100%30.07 "HgN/A
Weather by CustomWeather, © 2015

See weather overviewHow to use our weather pages